Time,TemperatureF,DewpointF,PressureIn,WindDirection,WindDirectionDegrees,WindSpeedMPH,WindSpeedGustMPH,Humidity,HourlyPrecipIn,Conditions,Clouds,dailyrainin,SolarRadiationWatts/m^2,SoftwareType,DateUTC
2013-01-28 00:01:00,26.3,23.0,30.11,NW,322,0.0,2.0,87,0.00,,,0.00,0,weatherlink.com 1.10,2013-01-28 07:01:00,
2013-01-28 00:16:00,25.8,23.0,30.10,East,84,5.0,6.0,88,0.00,,,0.00,0,weatherlink.com 1.10,2013-01-28 07:16:00,
2013-01-28 00:31:00,26.1,21.0,30.10,ESE,104,7.0,8.0,82,0.00,,,0.00,0,weatherlink.com 1.10,2013-01-28 07:31:00,
2013-01-28 00:46:00,25.8,22.0,30.11,NNW,343,2.0,4.0,86,0.00,,,0.00,0,weatherlink.com 1.10,2013-01-28 07:46:00,
2013-01-28 01:01:00,25.7,22.0,30.10,NE,43,1.0,1.0,87,0.00,,,0.00,0,weatherlink.com 1.10,2013-01-28 08:01:00,
2013-01-28 01:16:00,27.0,23.0,30.10,East,80,1.0,4.0,84,0.00,,,0.00,0,weatherlink.com 1.10,2013-01-28 08:16:00,
2013-01-28 01:31:00,26.1,23.0,30.10,NNE,31,3.0,3.0,86,0.00,,,0.00,0,weatherlink.com 1.10,2013-01-28 08:31:00,
2013-01-28 01:46:00,25.6,23.0,30.10,North,4,0.0,1.0,88,0.00,,,0.00,0,weatherlink.com 1.10,2013-01-28 08:46:00,
2013-01-28 02:02:00,26.1,22.0,30.09,ESE,121,9.0,10.0,85,0.00,,,0.00,0,weatherlink.com 1.10,2013-01-28 09:02:00,
2013-01-28 02:16:00,27.7,22.0,30.10,ESE,110,4.0,7.0,78,0.00,,,0.00,0,weatherlink.com 1.10,2013-01-28 09:16:00,
2013-01-28 02:31:00,25.7,22.0,30.10,ESE,115,4.0,7.0,84,0.00,,,0.00,0,weatherlink.com 1.10,2013-01-28 09:31:00,
2013-01-28 02:46:00,27.1,22.0,30.10,ESE,102,3.0,4.0,80,0.00,,,0.00,0,weatherlink.com 1.10,2013-01-28 09:46:00,
2013-01-28 03:01:00,27.5,22.0,30.10,ESE,105,3.0,3.0,78,0.00,,,0.00,0,weatherlink.com 1.10,2013-01-28 10:01:00,
2013-01-28 03:16:00,27.5,22.0,30.10,ESE,108,4.0,5.0,78,0.00,,,0.00,0,weatherlink.com 1.10,2013-01-28 10:16:00,
2013-01-28 03:31:00,27.5,21.0,30.10,ESE,108,1.0,3.0,76,0.00,,,0.00,0,weatherlink.com 1.10,2013-01-28 10:31:00,
2013-01-28 03:46:00,27.9,21.0,30.10,ESE,108,3.0,4.0,76,0.00,,,0.00,0,weatherlink.com 1.10,2013-01-28 10:46:00,
2013-01-28 04:01:00,28.1,21.0,30.10,ESE,117,5.0,7.0,75,0.00,,,0.00,0,weatherlink.com 1.10,2013-01-28 11:01:00,
2013-01-28 04:16:00,28.6,21.0,30.10,ESE,110,7.0,10.0,73,0.00,,,0.00,0,weatherlink.com 1.10,2013-01-28 11:16:00,
2013-01-28 04:31:00,28.6,21.0,30.10,ESE,112,5.0,8.0,73,0.00,,,0.00,0,weatherlink.com 1.10,2013-01-28 11:31:00,
2013-01-28 04:46:00,28.6,21.0,30.10,ESE,110,1.0,7.0,73,0.00,,,0.00,0,weatherlink.com 1.10,2013-01-28 11:46:00,
2013-01-28 05:01:00,26.5,21.0,30.10,ESE,118,0.0,3.0,81,0.00,,,0.00,0,weatherlink.com 1.10,2013-01-28 12:01:00,
2013-01-28 05:16:00,27.8,21.0,30.10,ESE,121,3.0,6.0,76,0.00,,,0.00,0,weatherlink.com 1.10,2013-01-28 12:16:00,
2013-01-28 05:31:00,28.1,21.0,30.09,SE,132,3.0,7.0,74,0.00,,,0.00,0,weatherlink.com 1.10,2013-01-28 12:31:00,
2013-01-28 05:46:00,28.1,21.0,30.09,SE,133,5.0,7.0,74,0.00,,,0.00,0,weatherlink.com 1.10,2013-01-28 12:46:00,
2013-01-28 06:01:00,28.1,21.0,30.09,ESE,121,4.0,7.0,74,0.00,,,0.00,0,weatherlink.com 1.10,2013-01-28 13:01:00,
2013-01-28 06:16:00,27.9,21.0,30.09,ESE,117,4.0,5.0,76,0.00,,,0.00,0,weatherlink.com 1.10,2013-01-28 13:16:00,
2013-01-28 06:31:00,27.9,21.0,30.09,ESE,112,4.0,5.0,76,0.00,,,0.00,0,weatherlink.com 1.10,2013-01-28 13:31:00,
2013-01-28 06:46:00,27.6,21.0,30.09,SSE,148,2.0,7.0,75,0.00,,,0.00,0,weatherlink.com 1.10,2013-01-28 13:46:00,
2013-01-28 07:01:00,27.8,21.0,30.09,East,100,5.0,10.0,75,0.00,,,0.00,0,weatherlink.com 1.10,2013-01-28 14:01:00,
2013-01-28 07:16:00,27.9,21.0,30.10,ESE,115,5.0,8.0,74,0.00,,,0.00,0,weatherlink.com 1.10,2013-01-28 14:16:00,
2013-01-28 07:31:00,27.5,20.0,30.10,ESE,110,3.0,5.0,74,0.00,,,0.00,0,weatherlink.com 1.10,2013-01-28 14:31:00,
2013-01-28 07:46:00,27.0,20.0,30.10,ESE,116,4.0,7.0,75,0.00,,,0.00,0,weatherlink.com 1.10,2013-01-28 14:46:00,
2013-01-28 08:01:00,27.3,21.0,30.10,East,100,4.0,9.0,76,0.00,,,0.00,0,weatherlink.com 1.10,2013-01-28 15:01:00,
2013-01-28 08:16:00,27.6,21.0,30.10,ESE,112,8.0,10.0,75,0.00,,,0.00,11,weatherlink.com 1.10,2013-01-28 15:16:00,
2013-01-28 08:31:00,27.7,21.0,30.10,ESE,117,9.0,11.0,75,0.00,,,0.00,44,weatherlink.com 1.10,2013-01-28 15:31:00,
2013-01-28 08:46:00,28.0,21.0,30.10,ESE,121,4.0,9.0,75,0.00,,,0.00,60,weatherlink.com 1.10,2013-01-28 15:46:00,
2013-01-28 09:01:00,28.0,21.0,30.10,SE,134,7.0,8.0,75,0.00,,,0.00,42,weatherlink.com 1.10,2013-01-28 16:01:00,
2013-01-28 09:16:00,28.1,21.0,30.09,SE,133,6.0,8.0,75,0.00,,,0.00,54,weatherlink.com 1.10,2013-01-28 16:16:00,
2013-01-28 09:31:00,28.0,21.0,30.09,ESE,110,2.0,8.0,75,0.00,,,0.00,79,weatherlink.com 1.10,2013-01-28 16:31:00,
2013-01-28 09:46:00,28.6,22.0,30.09,ESE,121,5.0,9.0,75,0.00,,,0.00,121,weatherlink.com 1.10,2013-01-28 16:46:00,
2013-01-28 10:02:00,29.2,22.0,30.09,ESE,123,7.0,9.0,74,0.00,,,0.00,220,weatherlink.com 1.10,2013-01-28 17:02:00,
2013-01-28 10:17:00,28.9,22.0,30.09,SSE,158,2.0,9.0,74,0.00,,,0.00,144,weatherlink.com 1.10,2013-01-28 17:17:00,
2013-01-28 10:32:00,30.3,23.0,30.09,South,183,3.0,6.0,73,0.00,,,0.00,385,weatherlink.com 1.10,2013-01-28 17:32:00,
2013-01-28 10:47:00,29.8,22.0,30.09,SW,216,3.0,4.0,73,0.00,,,0.00,181,weatherlink.com 1.10,2013-01-28 17:47:00,
2013-01-28 11:02:00,29.4,22.0,30.09,SSW,210,1.0,6.0,73,0.00,,,0.00,218,weatherlink.com 1.10,2013-01-28 18:02:00,
2013-01-28 11:17:00,29.2,22.0,30.09,SW,233,2.0,4.0,74,0.00,,,0.00,179,weatherlink.com 1.10,2013-01-28 18:17:00,
2013-01-28 11:32:00,29.7,22.0,30.09,SW,233,0.0,3.0,73,0.00,,,0.00,216,weatherlink.com 1.10,2013-01-28 18:32:00,
2013-01-28 11:47:00,30.2,22.0,30.08,East,90,3.0,4.0,71,0.00,,,0.00,223,weatherlink.com 1.10,2013-01-28 18:47:00,
2013-01-28 12:02:00,31.3,22.0,30.07,ESE,110,0.0,5.0,69,0.00,,,0.00,378,weatherlink.com 1.10,2013-01-28 19:02:00,
2013-01-28 12:17:00,32.8,21.0,30.06,SSE,154,2.0,9.0,62,0.00,,,0.00,374,weatherlink.com 1.10,2013-01-28 19:17:00,
2013-01-28 12:32:00,33.8,21.0,30.05,South,172,10.0,10.0,59,0.00,,,0.00,438,weatherlink.com 1.10,2013-01-28 19:32:00,
2013-01-28 12:47:00,33.6,19.0,30.05,SSE,164,13.0,14.0,55,0.00,,,0.00,207,weatherlink.com 1.10,2013-01-28 19:47:00,
2013-01-28 13:17:00,33.9,20.0,30.03,SE,146,9.0,14.0,56,0.00,,,0.00,139,weatherlink.com 1.10,2013-01-28 20:17:00,
2013-01-28 13:32:00,34.0,19.0,30.02,South,187,7.0,14.0,55,0.00,,,0.00,225,weatherlink.com 1.10,2013-01-28 20:32:00,
2013-01-28 13:47:00,34.6,19.0,30.01,South,174,8.0,14.0,54,0.00,,,0.00,399,weatherlink.com 1.10,2013-01-28 20:47:00,
2013-01-28 14:02:00,34.5,19.0,30.01,SSE,158,10.0,15.0,53,0.00,,,0.00,211,weatherlink.com 1.10,2013-01-28 21:02:00,
2013-01-28 14:17:00,34.9,20.0,30.01,SSE,164,10.0,12.0,54,0.00,,,0.00,216,weatherlink.com 1.10,2013-01-28 21:17:00,
2013-01-28 14:32:00,34.8,20.0,30.00,SSE,150,10.0,12.0,55,0.00,,,0.00,174,weatherlink.com 1.10,2013-01-28 21:32:00,
2013-01-28 14:47:00,34.8,20.0,30.00,SSE,147,7.0,14.0,55,0.00,,,0.00,174,weatherlink.com 1.10,2013-01-28 21:47:00,
2013-01-28 15:02:00,35.0,19.0,29.99,SSE,159,8.0,12.0,53,0.00,,,0.00,155,weatherlink.com 1.10,2013-01-28 22:02:00,
2013-01-28 15:17:00,35.1,20.0,29.99,SSE,167,10.0,14.0,54,0.00,,,0.00,127,weatherlink.com 1.10,2013-01-28 22:17:00,
2013-01-28 15:32:00,34.9,20.0,29.99,SE,146,7.0,12.0,55,0.00,,,0.00,105,weatherlink.com 1.10,2013-01-28 22:32:00,
2013-01-28 15:47:00,35.3,19.0,29.99,South,177,6.0,12.0,52,0.00,,,0.00,91,weatherlink.com 1.10,2013-01-28 22:47:00,
2013-01-28 16:02:00,35.0,20.0,29.98,South,170,8.0,14.0,55,0.00,,,0.00,76,weatherlink.com 1.10,2013-01-28 23:02:00,
2013-01-28 16:17:00,34.7,21.0,29.98,South,171,10.0,11.0,57,0.00,,,0.00,72,weatherlink.com 1.10,2013-01-28 23:17:00,
2013-01-28 16:32:00,34.5,20.0,29.98,South,191,6.0,11.0,55,0.00,,,0.00,42,weatherlink.com 1.10,2013-01-28 23:32:00,
2013-01-28 16:47:00,34.3,20.0,29.99,SSW,195,10.0,13.0,57,0.00,,,0.00,42,weatherlink.com 1.10,2013-01-28 23:47:00,
2013-01-28 17:02:00,33.7,20.0,29.99,South,175,5.0,10.0,58,0.00,,,0.00,35,weatherlink.com 1.10,2013-01-29 00:02:00,
2013-01-28 17:17:00,32.8,22.0,29.98,South,174,6.0,12.0,64,0.00,,,0.00,18,weatherlink.com 1.10,2013-01-29 00:17:00,
2013-01-28 17:32:00,32.2,22.0,29.98,SSE,148,7.0,10.0,67,0.00,,,0.00,5,weatherlink.com 1.10,2013-01-29 00:32:00,
2013-01-28 17:47:00,31.8,22.0,29.98,SE,144,6.0,7.0,68,0.00,,,0.00,0,weatherlink.com 1.10,2013-01-29 00:47:00,
2013-01-28 18:02:00,31.8,23.0,29.98,South,185,8.0,11.0,69,0.00,,,0.00,0,weatherlink.com 1.10,2013-01-29 01:02:00,
2013-01-28 18:17:00,30.8,24.0,29.98,South,177,3.0,9.0,76,0.00,,,0.00,0,weatherlink.com 1.10,2013-01-29 01:17:00,
2013-01-28 18:32:00,30.5,24.0,29.98,SE,127,2.0,6.0,77,0.00,,,0.00,0,weatherlink.com 1.10,2013-01-29 01:32:00,
2013-01-28 18:47:00,31.0,24.0,29.98,South,171,8.0,12.0,75,0.00,,,0.00,0,weatherlink.com 1.10,2013-01-29 01:47:00,
2013-01-28 19:02:00,30.5,24.0,29.98,South,169,3.0,9.0,78,0.00,,,0.00,0,weatherlink.com 1.10,2013-01-29 02:02:00,
2013-01-28 19:17:00,30.1,25.0,29.99,SSE,156,1.0,5.0,80,0.00,,,0.00,0,weatherlink.com 1.10,2013-01-29 02:17:00,
2013-01-28 19:32:00,30.0,24.0,29.98,SSE,156,0.0,1.0,79,0.00,,,0.00,0,weatherlink.com 1.10,2013-01-29 02:32:00,
2013-01-28 19:47:00,29.8,25.0,29.99,SSE,156,0.0,3.0,81,0.00,,,0.00,0,weatherlink.com 1.10,2013-01-29 02:47:00,
2013-01-28 20:02:00,29.7,25.0,29.98,SSE,155,1.0,2.0,82,0.00,,,0.00,0,weatherlink.com 1.10,2013-01-29 03:02:00,
2013-01-28 20:17:00,29.6,25.0,29.98,ESE,118,4.0,7.0,82,0.00,,,0.00,0,weatherlink.com 1.10,2013-01-29 03:17:00,
2013-01-28 20:32:00,30.3,25.0,29.98,South,169,0.0,8.0,80,0.00,,,0.00,0,weatherlink.com 1.10,2013-01-29 03:32:00,
2013-01-28 20:47:00,30.0,25.0,29.98,South,169,1.0,1.0,81,0.00,,,0.00,0,weatherlink.com 1.10,2013-01-29 03:47:00,
2013-01-28 21:02:00,30.1,25.0,29.99,SE,146,0.0,2.0,80,0.00,,,0.00,0,weatherlink.com 1.10,2013-01-29 04:02:00,
2013-01-28 21:17:00,30.2,24.0,29.98,SE,146,2.0,3.0,79,0.00,,,0.00,0,weatherlink.com 1.10,2013-01-29 04:17:00,
2013-01-28 21:32:00,30.4,24.0,29.98,ESE,107,3.0,6.0,78,0.00,,,0.00,0,weatherlink.com 1.10,2013-01-29 04:32:00,
2013-01-28 21:48:00,30.4,24.0,29.98,SE,137,10.0,10.0,78,0.00,,,0.00,0,weatherlink.com 1.10,2013-01-29 04:48:00,
2013-01-28 22:03:00,29.9,24.0,29.98,SSE,168,1.0,7.0,80,0.00,,,0.00,0,weatherlink.com 1.10,2013-01-29 05:03:00,
2013-01-28 22:18:00,29.6,25.0,29.98,SSE,168,0.0,2.0,82,0.00,,,0.00,0,weatherlink.com 1.10,2013-01-29 05:18:00,
2013-01-28 22:33:00,29.4,25.0,29.98,SE,144,0.0,5.0,83,0.00,,,0.00,0,weatherlink.com 1.10,2013-01-29 05:33:00,
2013-01-28 22:48:00,29.1,25.0,29.99,SE,144,1.0,3.0,86,0.00,,,0.00,0,weatherlink.com 1.10,2013-01-29 05:48:00,
2013-01-28 23:03:00,28.7,26.0,29.99,SE,143,0.0,2.0,88,0.00,,,0.00,0,weatherlink.com 1.10,2013-01-29 06:03:00,
2013-01-28 23:18:00,28.2,25.0,29.99,SE,141,0.0,3.0,89,0.00,,,0.00,0,weatherlink.com 1.10,2013-01-29 06:18:00,
2013-01-28 23:33:00,28.1,26.0,29.99,SE,141,2.0,2.0,90,0.00,,,0.00,0,weatherlink.com 1.10,2013-01-29 06:33:00,
2013-01-28 23:48:00,27.9,25.0,29.99,SE,141,1.0,2.0,90,0.00,,,0.00,0,weatherlink.com 1.10,2013-01-29 06:48:00,